Weather History for KTCS - February, 2014

Change the Weather History Date:

Wednesday, February 19, 2014

  Actual Average Record
Temperature  
Mean Temperature 59 °F -  
Max Temperature 75 °F 60 °F 78 °F (1999)
Min Temperature 43 °F 34 °F 24 °F (2009)
Degree Days  
Heating Degree Days 6    
Month to date heating degree days  
Since 1 July heating degree days  
Growing Degree Days 9 (Base 50)    
Moisture  
Dew Point 13 °F    
Average Humidity 20    
Maximum Humidity 31    
Minimum Humidity 9    
Precipitation  
Precipitation 0.00 in - 0.19 in (1997)
Month to date precipitation T  
Year to date precipitation T  
Sea Level Pressure  
Sea Level Pressure 29.70 in    
Wind  
Wind Speed 8 mph (WSW)    
Max Wind Speed 24 mph    
Max Gust Speed 32 mph    
Visibility 10 miles    
Events      
T = Trace of Precipitation, MM = Missing Value Source: NWS Daily Summary

Daily Weather History Graph

Daily Weather History Graph

Search for Another Location

Airport or City:

Trip Planner

Search our weather history database for the weather conditions in past years. The results will help you decide how hot, cold, wet, or windy it might be!

Date:

Astronomy

Feb. 19, 2014 Rise Set
Actual Time 6:48 AM MST 5:57 PM MST
Civil Twilight 6:23 AM MST 6:22 PM MST
Nautical Twilight 5:54 AM MST 6:51 PM MST
Astronomical Twilight 5:25 AM MST 7:20 PM MST
Moon 10:36 PM MST (2/19) 9:11 AM MST (2/19)
Length of Visible Light 11h 59m
Length of Day
11h 09m
Waning Gibbous, 79% of the Moon is Illuminated
Feb 19
Waning Gibbous
Feb 22
Last Quarter
Mar 1
New
Mar 8
First Quarter
Mar 16
Full

Hourly Weather History & Observations

Time (MST) Temp. Windchill Dew Point Humidity Pressure Visibility Wind Dir Wind Speed Gust Speed Precip Events Conditions
12:53 AM 54.0 °F - 15.1 °F 22% 29.80 in 10.0 mi NW 8.1 mph - N/A   Clear
1:53 AM 52.0 °F - 12.9 °F 21% 29.79 in 10.0 mi WNW 6.9 mph - N/A   Clear
2:53 AM 52.0 °F - 12.9 °F 21% 29.78 in 10.0 mi SW 8.1 mph - N/A   Clear
3:53 AM 53.1 °F - 15.1 °F 22% 29.77 in 10.0 mi NW 3.5 mph - N/A   Clear
4:53 AM 52.0 °F - 15.1 °F 23% 29.77 in 10.0 mi Calm Calm - N/A   Clear
5:53 AM 48.9 °F - 12.9 °F 24% 29.78 in 10.0 mi North 4.6 mph - N/A   Clear
6:53 AM 45.0 °F 43.5 °F 15.1 °F 30% 29.80 in 10.0 mi West 3.5 mph - N/A   Clear
7:53 AM 48.9 °F - 15.1 °F 26% 29.81 in 10.0 mi WNW 6.9 mph - N/A   Clear
8:53 AM 54.0 °F - 15.1 °F 22% 29.81 in 10.0 mi WSW 3.5 mph - N/A   Clear
9:53 AM 57.0 °F - 15.1 °F 19% 29.79 in 10.0 mi South 5.8 mph - N/A   Clear
10:53 AM 59.0 °F - 14.0 °F 17% 29.77 in 10.0 mi South 6.9 mph - N/A   Clear
11:53 AM 63.0 °F - 15.1 °F 16% 29.73 in 10.0 mi SSE 9.2 mph - N/A   Clear
12:53 PM 66.0 °F - 15.1 °F 14% 29.68 in 10.0 mi South 10.4 mph - N/A   Clear
1:53 PM 71.1 °F - 10.0 °F 9% 29.62 in 10.0 mi SSW 10.4 mph - N/A   Clear
2:53 PM 73.9 °F - 10.0 °F 9% 29.58 in 10.0 mi WNW 16.1 mph 28.8 mph N/A   Clear
3:53 PM 73.9 °F - 10.9 °F 9% 29.56 in 10.0 mi WSW 15.0 mph 27.6 mph N/A   Clear
4:53 PM 71.1 °F - 10.9 °F 10% 29.58 in 10.0 mi WSW 20.7 mph 28.8 mph N/A   Clear
5:53 PM 66.9 °F - 10.9 °F 11% 29.59 in 10.0 mi WSW 17.3 mph 26.5 mph N/A   Clear
6:53 PM 64.0 °F - 12.0 °F 13% 29.62 in 10.0 mi SW 16.1 mph 24.2 mph N/A   Clear
7:53 PM 60.1 °F - 12.9 °F 16% 29.62 in 10.0 mi South 11.5 mph - N/A   Clear
8:53 PM 55.9 °F - 12.9 °F 18% 29.64 in 10.0 mi Calm Calm - N/A   Clear
9:53 PM 60.1 °F - 15.1 °F 17% 29.64 in 10.0 mi WNW 10.4 mph - N/A   Clear
10:53 PM 57.9 °F - 9.0 °F 14% 29.65 in 10.0 mi NNW 5.8 mph - N/A   Clear
11:53 PM 55.0 °F - 8.1 °F 15% 29.67 in 10.0 mi NW 8.1 mph - N/A   Clear